GW1374 Weather Reports


Display with metric or nautical units.
time (UTC)temp
F
wind
direction
speed
MPH
gust
MPH
rain 1hr
in
rain 24hr
in
rain mn
in
humidity
%
barometer
mb
20260502223041 43 9 2.0 8.0 0.00 0.11 0.00 55 1011.3
20260502221540 43 313 1.0 4.0 0.00 0.11 0.00 53 1011.5
20260502220042 43 287 1.0 4.0 0.00 0.11 0.00 56 1011.3
20260502214545 43 273 1.0 5.0 0.00 0.11 0.00 58 1011.2
20260502213041 43 259 2.0 7.0 0.00 0.11 0.00 56 1011.5
20260502211542 43 38 1.0 5.0 0.00 0.11 0.00 59 1011.5
20260502210047 43 270 1.0 3.0 0.00 0.11 0.00 55 1011.3
20260502204540 44 34 1.0 4.0 0.00 0.11 0.00 55 1011.2
20260502203046 44 265 1.0 4.0 0.00 0.11 0.00 52 1011.5
20260502201549 44 309 0.0 4.0 0.00 0.11 0.00 52 1011.5
20260502200043 44 193 1.0 3.0 0.00 0.11 0.00 52 1011.5
20260502194600 44 319 0.0 3.0 0.00 0.11 0.00 52 1011.9
20260502193050 44 9 1.0 7.0 0.00 0.11 0.00 51 1012.1
20260502191546 44 332 1.0 6.0 0.00 0.11 0.00 51 1012.0
20260502190041 45 178 2.0 6.0 0.00 0.11 0.00 47 1011.8
20260502184554 45 0 1.0 4.0 0.00 0.11 0.00 50 1012.1
20260502183045 45 307 2.0 8.0 0.00 0.11 0.00 47 1012.1
20260502181545 45 249 2.0 7.0 0.00 0.11 0.00 45 1012.0
20260502163059 46 9 3.0 9.0 0.00 0.11 0.00 48 1012.2
20260502161539 47 323 3.0 9.0 0.00 0.11 0.00 47 1012.1
20260502151543 45 296 3.0 9.0 0.00 0.11 0.00 46 1012.2
20260502123048 37 298 2.0 8.0 0.00 0.11 0.00 80 1012.4
20260502121550 37 284 2.0 5.0 0.00 0.11 0.00 87 1012.7
20260502114546 38 254 1.0 3.0 0.00 0.11 0.00 90 1012.7
20260502113046 38 265 1.0 3.0 0.00 0.11 0.00 92 1012.6
20260502111554 37 291 1.0 4.0 0.00 0.11 0.00 92 1012.5
20260502110044 36 0 0.0 4.0 0.00 0.11 0.00 93 1012.3
20260502104544 37 178 1.0 3.0 0.00 0.11 0.00 93 1012.1
20260502103059 36 309 1.0 4.0 0.00 0.11 0.00 94 1012.0
20260502101558 37 334 1.0 3.0 0.00 0.11 0.00 94 1012.0
20260502070046 38 61 0.0 3.0 0.00 0.11 0.00 93 1011.0
20260502064541 38 13 1.0 4.0 0.00 0.11 0.00 93 1011.1
20260502063047 38 26 0.0 3.0 0.00 0.11 0.00 93 1011.1
20260502061543 38 0 1.0 5.0 0.00 0.11 0.00 93 1011.2
20260502060045 38 0 1.0 4.0 0.00 0.11 0.00 93 1011.2
20260502054547 38 316 1.0 5.0 0.00 0.11 0.00 93 1010.9
20260502053044 39 265 1.0 4.0 0.00 0.11 0.00 94 1011.1
20260502051542 39 286 1.0 4.0 0.00 0.11 0.00 94 1011.0
20260502050045 39 325 1.0 4.0 0.00 0.11 0.00 93 1011.1
20260502044547 39 302 2.0 4.0 0.00 0.11 0.00 93 1011.3
20260502043044 40 279 2.0 5.0 0.00 0.11 0.00 93 1011.1
20260502041539 40 275 1.0 3.0 0.01 0.11 0.00 94 1011.0
20260502040046 40 303 1.0 3.0 0.01 0.11 0.00 94 1010.9
20260502034542 40 254 1.0 3.0 0.02 0.11 0.11 93 1010.6
20260502033045 41 265 1.0 2.0 0.04 0.11 0.11 93 1010.6
20260502031544 41 273 1.0 4.0 0.03 0.10 0.10 93 1010.8
20260502030041 41 265 1.0 3.0 0.04 0.10 0.10 93 1010.9
20260502024541 42 273 1.0 7.0 0.03 0.08 0.08 94 1010.9
20260502023051 42 0 0.0 2.0 0.02 0.07 0.07 94 1010.9
20260502021542 42 0 0.0 2.0 0.03 0.07 0.07 94 1011.1
20260502020045 42 0 0.0 2.0 0.02 0.06 0.06 94 1011.0
20260502014545 42 232 0.0 2.0 0.02 0.05 0.05 93 1010.7
20260502013046 42 239 0.0 2.0 0.03 0.05 0.05 93 1010.9
20260502011546 42 221 0.0 1.0 0.02 0.04 0.04 93 1010.8
20260502010051 42 0 0.0 2.0 0.02 0.04 0.04 92 1010.8
20260502004602 42 0 0.0 2.0 0.02 0.03 0.03 92 1010.7
20260502003045 42 238 0.0 2.0 0.01 0.02 0.02 91 1010.7
20260502001545 42 178 0.0 2.0 0.02 0.02 0.02 91 1010.4
20260502000056 43 0 0.0 2.0 0.02 0.02 0.02 90 1010.4
20260501234543 43 291 0.0 2.0 0.01 0.01 0.01 89 1010.2
20260501233052 43 265 0.0 2.0 0.01 0.01 0.01 87 1010.3
20260501231553 44 0 0.0 3.0 0.00 0.00 0.00 85 1010.3
20260501230050 45 277 1.0 4.0 0.00 0.00 0.00 80 1010.2
20260501224546 46 273 1.0 4.0 0.00 0.00 0.00 75 1010.2